| time (UTC) | temp F | wind direction | speed MPH | gust MPH | rain 1hr in | rain 24hr in | rain mn in | humidity % | barometer mb |
| 20260502224851 | 52 | 4 | 1.0 | 5.0 | 0.06 | 0.12 | 0.12 | 89 | 1010.7 |
| 20260502224351 | 52 | 9 | 2.0 | 5.0 | 0.06 | 0.12 | 0.12 | 88 | 1010.6 |
| 20260502222852 | 53 | 3 | 1.0 | 3.0 | 0.07 | 0.10 | 0.10 | 88 | 1010.6 |
| 20260502221851 | 53 | 24 | 1.0 | 3.0 | 0.07 | 0.09 | 0.09 | 88 | 1010.7 |
| 20260502221351 | 53 | 29 | 0.0 | 2.0 | 0.08 | 0.09 | 0.09 | 88 | 1010.8 |
| 20260502220852 | 53 | 74 | 0.0 | 2.0 | 0.07 | 0.09 | 0.09 | 88 | 1010.8 |
| 20260502220351 | 53 | 49 | 1.0 | 2.0 | 0.07 | 0.08 | 0.08 | 87 | 1010.9 |
| 20260502215852 | 53 | 53 | 1.0 | 2.0 | 0.07 | 0.08 | 0.08 | 88 | 1010.9 |
| 20260502215351 | 53 | 348 | 1.0 | 3.0 | 0.06 | 0.07 | 0.07 | 88 | 1011.0 |
| 20260502214352 | 53 | 81 | 0.0 | 3.0 | 0.06 | 0.06 | 0.06 | 88 | 1011.2 |
| 20260502213851 | 53 | 90 | 1.0 | 2.0 | 0.05 | 0.05 | 0.05 | 88 | 1011.2 |
| 20260502213351 | 53 | 108 | 1.0 | 3.0 | 0.04 | 0.04 | 0.04 | 87 | 1011.2 |
| 20260502212351 | 54 | 100 | 1.0 | 2.0 | 0.02 | 0.02 | 0.02 | 87 | 1011.2 |
| 20260502211851 | 54 | 100 | 1.0 | 3.0 | 0.02 | 0.02 | 0.02 | 86 | 1011.3 |
| 20260502211350 | 54 | 146 | 1.0 | 3.0 | 0.02 | 0.02 | 0.02 | 84 | 1011.3 |
| 20260502210851 | 54 | 331 | 1.0 | 5.0 | 0.02 | 0.02 | 0.02 | 84 | 1011.2 |
| 20260502210352 | 54 | 322 | 1.0 | 3.0 | 0.01 | 0.01 | 0.01 | 83 | 1011.3 |
| 20260502205851 | 54 | 338 | 1.0 | 3.0 | 0.01 | 0.01 | 0.01 | 82 | 1011.4 |
| 20260502205351 | 54 | 316 | 1.0 | 3.0 | 0.01 | 0.01 | 0.01 | 81 | 1011.4 |
| 20260502204851 | 54 | 342 | 1.0 | 2.0 | 0.01 | 0.01 | 0.01 | 80 | 1011.4 |
| 20260502204351 | 55 | 342 | 0.0 | 1.0 | 0.00 | 0.00 | 0.00 | 80 | 1011.5 |
| 20260502203852 | 55 | 342 | 1.0 | 2.0 | 0.00 | 0.00 | 0.00 | 79 | 1011.6 |
| 20260502203351 | 55 | 313 | 0.0 | 1.0 | 0.00 | 0.00 | 0.00 | 79 | 1011.6 |
| 20260502202851 | 55 | 313 | 0.0 | 2.0 | 0.00 | 0.00 | 0.00 | 78 | 1011.6 |
| 20260502201851 | 56 | 313 | 0.0 | 2.0 | 0.00 | 0.00 | 0.00 | 75 | 1011.6 |
| 20260502201352 | 56 | 313 | 1.0 | 2.0 | 0.00 | 0.00 | 0.00 | 75 | 1011.6 |
| 20260502200851 | 56 | 313 | 0.0 | 2.0 | 0.00 | 0.00 | 0.00 | 74 | 1011.6 |
| 20260502195851 | 57 | 313 | 0.0 | 2.0 | 0.00 | 0.00 | 0.00 | 72 | 1011.5 |
| 20260502195351 | 57 | 313 | 0.0 | 2.0 | 0.00 | 0.00 | 0.00 | 72 | 1011.5 |
| 20260502194852 | 57 | 313 | 0.0 | 1.0 | 0.00 | 0.00 | 0.00 | 72 | 1011.5 |
| 20260502194351 | 57 | 313 | 1.0 | 2.0 | 0.00 | 0.00 | 0.00 | 72 | 1011.4 |
| 20260502193851 | 57 | 313 | 0.0 | 2.0 | 0.00 | 0.00 | 0.00 | 71 | 1011.4 |
| 20260502193351 | 57 | 313 | 1.0 | 2.0 | 0.00 | 0.00 | 0.00 | 71 | 1011.4 |
| 20260502192851 | 57 | 313 | 0.0 | 2.0 | 0.00 | 0.00 | 0.00 | 71 | 1011.4 |
| 20260502192352 | 56 | 313 | 0.0 | 2.0 | 0.00 | 0.00 | 0.00 | 72 | 1011.3 |
| 20260502191851 | 56 | 313 | 1.0 | 2.0 | 0.00 | 0.00 | 0.00 | 72 | 1011.3 |
| 20260502191351 | 56 | 343 | 1.0 | 3.0 | 0.00 | 0.00 | 0.00 | 72 | 1011.3 |
| 20260502190852 | 56 | 321 | 1.0 | 3.0 | 0.00 | 0.00 | 0.00 | 73 | 1011.3 |
| 20260502190351 | 56 | 351 | 2.0 | 3.0 | 0.00 | 0.00 | 0.00 | 73 | 1011.3 |
| 20260502185851 | 57 | 331 | 1.0 | 3.0 | 0.00 | 0.00 | 0.00 | 73 | 1011.4 |
| 20260502185351 | 57 | 316 | 1.0 | 3.0 | 0.00 | 0.00 | 0.00 | 73 | 1011.4 |
| 20260502184851 | 57 | 333 | 1.0 | 2.0 | 0.00 | 0.00 | 0.00 | 72 | 1011.4 |
| 20260502184351 | 57 | 333 | 1.0 | 2.0 | 0.00 | 0.00 | 0.00 | 71 | 1011.4 |
| 20260502183851 | 58 | 333 | 0.0 | 1.0 | 0.00 | 0.00 | 0.00 | 72 | 1011.5 |
| 20260502183351 | 58 | 326 | 1.0 | 3.0 | 0.00 | 0.00 | 0.00 | 71 | 1011.5 |
| 20260502182851 | 58 | 358 | 1.0 | 3.0 | 0.00 | 0.00 | 0.00 | 70 | 1011.6 |
| 20260502182350 | 58 | 344 | 0.0 | 3.0 | 0.00 | 0.00 | 0.00 | 70 | 1011.6 |
| 20260502181851 | 58 | 313 | 0.0 | 0.0 | 0.00 | 0.00 | 0.00 | 71 | 1011.7 |
| 20260502181350 | 58 | 313 | 0.0 | 1.0 | 0.00 | 0.00 | 0.00 | 70 | 1011.7 |
| 20260502180851 | 58 | 313 | 0.0 | 2.0 | 0.00 | 0.00 | 0.00 | 71 | 1011.7 |
| 20260502180351 | 58 | 313 | 0.0 | 2.0 | 0.00 | 0.00 | 0.00 | 71 | 1011.8 |
| 20260502170351 | 60 | 304 | 2.0 | 3.0 | 0.00 | 0.00 | 0.00 | 67 | 1011.9 |
| 20260502163851 | 61 | 291 | 1.0 | 3.0 | 0.00 | 0.00 | 0.00 | 66 | 1012.2 |
| 20260502163351 | 61 | 316 | 1.0 | 2.0 | 0.00 | 0.00 | 0.00 | 65 | 1012.3 |
| 20260502162851 | 61 | 290 | 1.0 | 2.0 | 0.00 | 0.00 | 0.00 | 64 | 1012.4 |
| 20260502162351 | 61 | 314 | 1.0 | 3.0 | 0.00 | 0.00 | 0.00 | 64 | 1012.4 |
| 20260502161851 | 61 | 285 | 1.0 | 3.0 | 0.00 | 0.00 | 0.00 | 64 | 1012.3 |
| 20260502161350 | 62 | 311 | 2.0 | 3.0 | 0.00 | 0.00 | 0.00 | 62 | 1012.4 |
| 20260502160351 | 62 | 292 | 1.0 | 5.0 | 0.00 | 0.00 | 0.00 | 64 | 1012.6 |
| 20260502151851 | 62 | 319 | 1.0 | 3.0 | 0.00 | 0.00 | 0.00 | 63 | 1012.9 |
| 20260502151351 | 62 | 286 | 2.0 | 3.0 | 0.00 | 0.00 | 0.00 | 63 | 1013.1 |
| 20260502150851 | 62 | 351 | 1.0 | 3.0 | 0.00 | 0.00 | 0.00 | 63 | 1013.1 |
| 20260502150350 | 62 | 323 | 2.0 | 3.0 | 0.00 | 0.00 | 0.00 | 63 | 1013.3 |
| 20260502130350 | 59 | 283 | 3.0 | 9.0 | 0.00 | 0.00 | 0.00 | 67 | 1014.2 |
| 20260502123351 | 58 | 302 | 2.0 | 5.0 | 0.00 | 0.00 | 0.00 | 73 | 1014.6 |
| 20260502122851 | 57 | 263 | 3.0 | 6.0 | 0.00 | 0.00 | 0.00 | 74 | 1014.6 |
| 20260502122351 | 56 | 248 | 3.0 | 6.0 | 0.00 | 0.00 | 0.00 | 74 | 1014.9 |
| 20260502121851 | 56 | 309 | 2.0 | 6.0 | 0.00 | 0.00 | 0.00 | 77 | 1015.0 |
| 20260502121350 | 55 | 290 | 1.0 | 3.0 | 0.00 | 0.00 | 0.00 | 78 | 1015.0 |
| 20260502120850 | 55 | 289 | 2.0 | 7.0 | 0.00 | 0.00 | 0.00 | 77 | 1015.3 |
| 20260502115850 | 55 | 260 | 3.0 | 8.0 | 0.00 | 0.00 | 0.00 | 76 | 1015.3 |
| 20260502115350 | 55 | 293 | 2.0 | 7.0 | 0.00 | 0.00 | 0.00 | 76 | 1015.4 |
| 20260502114851 | 55 | 259 | 3.0 | 7.0 | 0.00 | 0.00 | 0.00 | 77 | 1015.4 |
| 20260502113851 | 55 | 238 | 2.0 | 7.0 | 0.00 | 0.00 | 0.00 | 74 | 1015.3 |
| 20260502113350 | 55 | 222 | 5.0 | 8.0 | 0.00 | 0.00 | 0.00 | 75 | 1015.2 |
| 20260502112850 | 55 | 218 | 5.0 | 8.0 | 0.00 | 0.00 | 0.00 | 77 | 1015.2 |
| 20260502112350 | 55 | 240 | 3.0 | 6.0 | 0.00 | 0.00 | 0.00 | 78 | 1015.1 |
| 20260502111851 | 55 | 265 | 3.0 | 6.0 | 0.00 | 0.00 | 0.00 | 79 | 1015.1 |
| 20260502111351 | 54 | 245 | 3.0 | 6.0 | 0.00 | 0.00 | 0.00 | 79 | 1015.1 |
| 20260502110351 | 55 | 260 | 3.0 | 8.0 | 0.00 | 0.00 | 0.00 | 81 | 1015.1 |
| 20260502105851 | 54 | 251 | 3.0 | 6.0 | 0.00 | 0.00 | 0.00 | 80 | 1015.0 |
| 20260502105350 | 55 | 276 | 3.0 | 6.0 | 0.00 | 0.00 | 0.00 | 81 | 1015.2 |
| 20260502104850 | 54 | 254 | 3.0 | 7.0 | 0.00 | 0.00 | 0.00 | 82 | 1015.2 |
| 20260502104350 | 54 | 294 | 1.0 | 3.0 | 0.00 | 0.00 | 0.00 | 83 | 1015.3 |
| 20260502103851 | 54 | 248 | 2.0 | 5.0 | 0.00 | 0.00 | 0.00 | 83 | 1015.3 |
| 20260502103351 | 54 | 268 | 2.0 | 5.0 | 0.00 | 0.00 | 0.00 | 83 | 1015.3 |
| 20260502102851 | 53 | 250 | 3.0 | 7.0 | 0.00 | 0.00 | 0.00 | 84 | 1015.4 |
| 20260502102351 | 53 | 248 | 2.0 | 5.0 | 0.00 | 0.00 | 0.00 | 84 | 1015.5 |
| 20260502101850 | 53 | 260 | 3.0 | 8.0 | 0.00 | 0.00 | 0.00 | 83 | 1015.6 |
| 20260502101350 | 54 | 256 | 2.0 | 6.0 | 0.00 | 0.00 | 0.00 | 83 | 1015.4 |
| 20260502100851 | 53 | 304 | 2.0 | 3.0 | 0.00 | 0.00 | 0.00 | 83 | 1015.4 |
| 20260502091351 | 52 | 274 | 2.0 | 5.0 | 0.00 | 0.00 | 0.00 | 85 | 1015.7 |
| 20260502090850 | 52 | 295 | 2.0 | 3.0 | 0.00 | 0.00 | 0.00 | 85 | 1015.8 |
| 20260502090350 | 52 | 288 | 2.0 | 5.0 | 0.00 | 0.00 | 0.00 | 86 | 1015.8 |
| 20260502071350 | 50 | 273 | 1.0 | 3.0 | 0.00 | 0.00 | 0.00 | 88 | 1015.7 |
| 20260502070851 | 50 | 256 | 2.0 | 3.0 | 0.00 | 0.00 | 0.00 | 88 | 1015.7 |
| 20260502070350 | 50 | 270 | 1.0 | 3.0 | 0.00 | 0.00 | 0.00 | 88 | 1015.7 |
| 20260502065850 | 50 | 244 | 1.0 | 3.0 | 0.00 | 0.00 | 0.00 | 88 | 1015.7 |
| 20260502065350 | 50 | 261 | 1.0 | 2.0 | 0.00 | 0.00 | 0.00 | 88 | 1015.7 |
| 20260502063850 | 50 | 237 | 2.0 | 5.0 | 0.00 | 0.00 | 0.00 | 88 | 1015.7 |
| 20260502063350 | 50 | 254 | 2.0 | 3.0 | 0.00 | 0.00 | 0.00 | 89 | 1015.6 |
| 20260502062350 | 50 | 251 | 1.0 | 6.0 | 0.00 | 0.00 | 0.00 | 89 | 1015.5 |
| 20260502061850 | 50 | 267 | 2.0 | 3.0 | 0.00 | 0.00 | 0.00 | 89 | 1015.5 |
| 20260502061351 | 50 | 251 | 3.0 | 5.0 | 0.00 | 0.00 | 0.00 | 89 | 1015.6 |
| 20260502060850 | 50 | 264 | 2.0 | 6.0 | 0.00 | 0.00 | 0.00 | 89 | 1015.6 |
| 20260502060350 | 50 | 255 | 3.0 | 7.0 | 0.00 | 0.00 | 0.00 | 89 | 1015.6 |
| 20260502055851 | 50 | 263 | 2.0 | 3.0 | 0.00 | 0.00 | 0.00 | 89 | 1015.6 |
| 20260502055350 | 50 | 274 | 2.0 | 7.0 | 0.00 | 0.00 | 0.00 | 88 | 1015.6 |
| 20260502054350 | 50 | 273 | 2.0 | 3.0 | 0.00 | 0.00 | 0.00 | 88 | 1015.6 |
| 20260502053851 | 50 | 264 | 2.0 | 3.0 | 0.00 | 0.00 | 0.00 | 88 | 1015.6 |
| 20260502052850 | 50 | 263 | 2.0 | 6.0 | 0.00 | 0.00 | 0.00 | 88 | 1015.6 |
| 20260502051850 | 50 | 247 | 3.0 | 8.0 | 0.00 | 0.00 | 0.00 | 88 | 1015.6 |
| 20260502051350 | 50 | 260 | 4.0 | 9.0 | 0.00 | 0.00 | 0.00 | 88 | 1015.6 |
| 20260502050850 | 50 | 255 | 4.0 | 12.0 | 0.00 | 0.00 | 0.00 | 88 | 1015.6 |
| 20260502045851 | 50 | 273 | 5.0 | 9.0 | 0.00 | 0.00 | 0.00 | 88 | 1015.6 |
| 20260502044850 | 50 | 227 | 2.0 | 5.0 | 0.00 | 0.00 | 0.00 | 88 | 1015.6 |
| 20260502044350 | 50 | 277 | 1.0 | 3.0 | 0.00 | 0.00 | 0.00 | 88 | 1015.6 |
| 20260502043850 | 50 | 229 | 1.0 | 3.0 | 0.00 | 0.00 | 0.00 | 88 | 1015.6 |
| 20260502043350 | 50 | 207 | 1.0 | 2.0 | 0.00 | 0.00 | 0.00 | 88 | 1015.5 |
| 20260502042850 | 50 | 256 | 1.0 | 2.0 | 0.00 | 0.00 | 0.00 | 88 | 1015.6 |
| 20260502042350 | 50 | 263 | 1.0 | 3.0 | 0.00 | 0.00 | 0.00 | 88 | 1015.6 |
| 20260502041851 | 50 | 226 | 1.0 | 3.0 | 0.00 | 0.00 | 0.00 | 88 | 1015.6 |
| 20260502041350 | 50 | 264 | 2.0 | 3.0 | 0.00 | 0.00 | 0.00 | 88 | 1015.7 |
| 20260502040850 | 50 | 246 | 2.0 | 5.0 | 0.00 | 0.00 | 0.00 | 88 | 1015.6 |
| 20260502040350 | 50 | 265 | 2.0 | 6.0 | 0.00 | 0.00 | 0.00 | 88 | 1015.7 |
| 20260502035850 | 50 | 289 | 1.0 | 3.0 | 0.00 | 0.00 | 0.00 | 88 | 1015.7 |
| 20260502035350 | 50 | 284 | 1.0 | 3.0 | 0.00 | 0.00 | 0.00 | 88 | 1015.7 |
| 20260502034850 | 50 | 294 | 0.0 | 3.0 | 0.00 | 0.00 | 0.00 | 88 | 1015.7 |
| 20260502034350 | 50 | 268 | 1.0 | 3.0 | 0.00 | 0.00 | 0.00 | 89 | 1015.7 |
| 20260502033850 | 50 | 260 | 2.0 | 3.0 | 0.00 | 0.00 | 0.00 | 89 | 1015.7 |
| 20260502033350 | 50 | 302 | 1.0 | 3.0 | 0.00 | 0.00 | 0.00 | 89 | 1015.7 |
| 20260502032850 | 50 | 286 | 2.0 | 3.0 | 0.00 | 0.00 | 0.00 | 89 | 1015.7 |
| 20260502032350 | 50 | 230 | 1.0 | 3.0 | 0.00 | 0.00 | 0.00 | 90 | 1015.6 |
| 20260502031350 | 49 | 252 | 2.0 | 3.0 | 0.00 | 0.00 | 0.00 | 90 | 1015.6 |
| 20260502030350 | 49 | 272 | 1.0 | 3.0 | 0.00 | 0.00 | 0.00 | 90 | 1015.6 |
| 20260502025850 | 49 | 272 | 1.0 | 3.0 | 0.00 | 0.00 | 0.00 | 90 | 1015.6 |
| 20260502025350 | 49 | 269 | 1.0 | 3.0 | 0.00 | 0.00 | 0.00 | 90 | 1015.5 |
| 20260502024850 | 49 | 298 | 2.0 | 3.0 | 0.00 | 0.00 | 0.00 | 90 | 1015.5 |
| 20260502024349 | 49 | 291 | 1.0 | 3.0 | 0.00 | 0.00 | 0.00 | 90 | 1015.6 |
| 20260502023350 | 49 | 268 | 1.0 | 3.0 | 0.00 | 0.00 | 0.00 | 90 | 1015.6 |
| 20260502022850 | 49 | 285 | 2.0 | 3.0 | 0.00 | 0.00 | 0.00 | 90 | 1015.6 |
| 20260502022351 | 49 | 275 | 1.0 | 3.0 | 0.00 | 0.00 | 0.00 | 90 | 1015.7 |
| 20260502021850 | 49 | 279 | 1.0 | 5.0 | 0.00 | 0.00 | 0.00 | 91 | 1015.8 |
| 20260502021350 | 49 | 289 | 2.0 | 3.0 | 0.00 | 0.00 | 0.00 | 91 | 1015.8 |
| 20260502020849 | 49 | 277 | 2.0 | 3.0 | 0.00 | 0.00 | 0.00 | 90 | 1015.8 |
| 20260502015850 | 49 | 266 | 2.0 | 3.0 | 0.00 | 0.00 | 0.00 | 90 | 1015.9 |
| 20260502015349 | 49 | 257 | 3.0 | 6.0 | 0.00 | 0.00 | 0.00 | 90 | 1016.0 |
| 20260502014850 | 49 | 279 | 3.0 | 7.0 | 0.00 | 0.00 | 0.00 | 89 | 1016.1 |
| 20260502014349 | 50 | 260 | 3.0 | 7.0 | 0.00 | 0.00 | 0.00 | 89 | 1016.1 |
| 20260502013349 | 50 | 264 | 2.0 | 5.0 | 0.00 | 0.00 | 0.00 | 89 | 1016.1 |
| 20260502012849 | 50 | 259 | 2.0 | 7.0 | 0.00 | 0.00 | 0.00 | 89 | 1016.2 |
| 20260502012349 | 50 | 270 | 2.0 | 3.0 | 0.00 | 0.00 | 0.00 | 89 | 1016.3 |
| 20260502011851 | 50 | 266 | 3.0 | 6.0 | 0.00 | 0.00 | 0.00 | 88 | 1016.3 |
| 20260502011349 | 50 | 267 | 3.0 | 8.0 | 0.00 | 0.00 | 0.00 | 88 | 1016.3 |
| 20260502010850 | 51 | 264 | 2.0 | 8.0 | 0.00 | 0.00 | 0.00 | 88 | 1016.4 |
| 20260502010349 | 51 | 281 | 4.0 | 8.0 | 0.00 | 0.00 | 0.00 | 89 | 1016.5 |
| 20260502005850 | 51 | 274 | 4.0 | 10.0 | 0.00 | 0.00 | 0.00 | 89 | 1016.6 |
| 20260502005350 | 51 | 249 | 2.0 | 7.0 | 0.00 | 0.00 | 0.00 | 89 | 1016.7 |
| 20260502004850 | 51 | 255 | 3.0 | 9.0 | 0.00 | 0.00 | 0.00 | 89 | 1016.7 |
| 20260502004350 | 51 | 252 | 3.0 | 7.0 | 0.00 | 0.00 | 0.00 | 89 | 1016.8 |
| 20260502003850 | 51 | 262 | 2.0 | 16.0 | 0.00 | 0.00 | 0.00 | 90 | 1016.8 |
| 20260502003350 | 51 | 269 | 2.0 | 5.0 | 0.00 | 0.00 | 0.00 | 90 | 1016.8 |
| 20260502002850 | 51 | 249 | 3.0 | 5.0 | 0.00 | 0.00 | 0.00 | 90 | 1016.8 |
| 20260502000350 | 52 | 243 | 2.0 | 3.0 | 0.00 | 0.00 | 0.00 | 90 | 1016.8 |
| 20260501235350 | 52 | 292 | 1.0 | 3.0 | 0.00 | 0.00 | 0.00 | 90 | 1016.9 |
| 20260501233349 | 52 | 254 | 2.0 | 5.0 | 0.00 | 0.00 | 0.00 | 89 | 1016.7 |
| 20260501232850 | 52 | 275 | 2.0 | 5.0 | 0.00 | 0.00 | 0.00 | 90 | 1016.7 |
| 20260501232349 | 52 | 275 | 2.0 | 6.0 | 0.00 | 0.00 | 0.00 | 90 | 1016.7 |
| 20260501231850 | 52 | 265 | 2.0 | 7.0 | 0.00 | 0.00 | 0.00 | 90 | 1016.8 |
| 20260501231349 | 52 | 263 | 3.0 | 6.0 | 0.00 | 0.00 | 0.00 | 90 | 1016.8 |
| 20260501230934 | 52 | 285 | 3.0 | 6.0 | 0.00 | 0.00 | 0.00 | 90 | 1016.7 |
| 20260501230350 | 52 | 250 | 2.0 | 7.0 | 0.00 | 0.00 | 0.00 | 90 | 1016.7 |
| 20260501225349 | 52 | 256 | 3.0 | 7.0 | 0.00 | 0.00 | 0.00 | 90 | 1016.7 |